TimeCDT,TemperatureF,Dew PointF,Humidity,Sea Level PressureIn,VisibilityMPH,Wind Direction,Wind SpeedMPH,Gust SpeedMPH,PrecipitationIn,Events,Conditions,WindDirDegrees,DateUTC
12:52 AM,60.1,45.0,57,29.84,10.0,NW,15.0,24.2,N/A,,Clear,320,2013-09-24 05:52:00
1:52 AM,59.0,44.1,58,29.86,10.0,NW,13.8,20.7,N/A,,Clear,320,2013-09-24 06:52:00
2:52 AM,57.9,44.1,60,29.89,10.0,NW,15.0,-,N/A,,Clear,310,2013-09-24 07:52:00
3:52 AM,57.9,44.1,60,29.90,10.0,NW,17.3,-,N/A,,Clear,320,2013-09-24 08:52:00
4:52 AM,55.9,44.1,64,29.93,10.0,WNW,13.8,-,N/A,,Clear,300,2013-09-24 09:52:00
5:52 AM,55.0,44.1,67,29.95,10.0,WNW,11.5,-,N/A,,Clear,300,2013-09-24 10:52:00
6:52 AM,54.0,45.0,72,29.97,10.0,WNW,12.7,-,N/A,,Clear,300,2013-09-24 11:52:00
7:52 AM,54.0,45.0,72,29.99,10.0,WNW,12.7,-,N/A,,Clear,300,2013-09-24 12:52:00
8:52 AM,60.1,46.0,60,29.99,10.0,WNW,12.7,-,N/A,,Clear,300,2013-09-24 13:52:00
9:52 AM,66.9,45.0,45,30.00,10.0,NW,20.7,25.3,N/A,,Clear,320,2013-09-24 14:52:00
10:52 AM,70.0,43.0,38,30.01,10.0,NNW,19.6,28.8,N/A,,Clear,330,2013-09-24 15:52:00
11:52 AM,75.0,39.0,27,29.99,10.0,NNW,13.8,24.2,N/A,,Clear,330,2013-09-24 16:52:00
12:52 PM,78.1,35.1,21,29.98,10.0,NNW,15.0,31.1,N/A,,Clear,330,2013-09-24 17:52:00
1:52 PM,80.1,35.1,20,29.96,10.0,NNW,16.1,25.3,N/A,,Clear,330,2013-09-24 18:52:00
2:52 PM,81.0,34.0,18,29.94,10.0,NNW,13.8,27.6,N/A,,Clear,330,2013-09-24 19:52:00
3:52 PM,81.0,34.0,18,29.92,10.0,NNW,15.0,26.5,N/A,,Clear,330,2013-09-24 20:52:00
4:52 PM,81.0,33.1,18,29.92,10.0,WNW,12.7,24.2,N/A,,Clear,300,2013-09-24 21:52:00
5:52 PM,80.1,33.1,18,29.91,10.0,North,9.2,18.4,N/A,,Clear,350,2013-09-24 22:52:00
6:52 PM,77.0,35.1,22,29.92,10.0,North,8.1,-,N/A,,Clear,360,2013-09-24 23:52:00
7:52 PM,63.0,34.0,34,29.94,10.0,NE,3.5,-,N/A,,Clear,40,2013-09-25 00:52:00
8:52 PM,57.9,35.1,42,29.94,10.0,NE,6.9,-,N/A,,Clear,40,2013-09-25 01:52:00
9:52 PM,63.0,35.1,35,29.92,10.0,ENE,6.9,-,N/A,,Clear,70,2013-09-25 02:52:00
10:52 PM,59.0,35.1,41,29.93,10.0,East,8.1,-,N/A,,Clear,90,2013-09-25 03:52:00
11:52 PM,57.0,37.0,47,29.91,10.0,ESE,6.9,-,N/A,,Clear,110,2013-09-25 04:52:00